This demonstration page uses our WeatherBlox Daily Observations layout. Learn more.

Left ArrowRight Arrow

Hourly Observations for November 25, 2015

Temp ( °F °C ) Dew Point ( °F °C ) Humidity (%) Winds ( mph kmh ) Pressure ( in mb ) Visibility ( mi km ) Precip ( " mm )
12:53 am 00:53 Clear 40 4.4 37 2.8 89 89 S 9 15 29.80 1009 10 16 0.00 0.00
1:53 am 01:53 Clear with Mist and Fog 39 3.9 37 2.8 93 93 S 8 13 29.79 1009 6 10 0.00 0.00
2:32 am 02:32 Mostly Cloudy with Mist and Fog 41 5 39 4 93 93 S 8 13 29.80 1009 6 10 0.00 0.00
2:53 am 02:53 Cloudy 45 7.2 42 5.6 90 90 S 9 15 29.78 1009 8 13 0.00 0.00
3:53 am 03:53 Cloudy 47 8.3 44 6.7 90 90 S 9 15 29.79 1009 8 13 0.00 0.00
4:53 am 04:53 Cloudy 47 8.3 45 7.2 93 93 SSW 8 13 29.80 1009 7 11 0.00 0.00
5:18 am 05:18 Cloudy with Mist and Fog 46 8 45 7 93 93 S 5 7 29.83 1010 6 10 0.00 0.00
5:53 am 05:53 Cloudy with Mist and Fog 46 7.8 44 6.7 93 93 S 6 9 29.81 1009 6 10 0.00 0.00
6:53 am 06:53 Cloudy with Mist and Fog 45 7.2 43 6.1 93 93 SSE 3 6 29.83 1010 6 10 0.00 0.00
7:53 am 07:53 Cloudy with Mist and Fog 46 7.8 44 6.7 93 93 Calm 29.84 1011 4 6 0.00 0.00
8:12 am 08:12 Cloudy with Mist and Fog 45 7.2 43 6.1 93 93 NNE 5 7 29.85 1011 3 4 0.00 0.00
8:21 am 08:21 Cloudy with Mist and Fog 46 7.8 44 6.7 93 93 ENE 5 7 29.85 1011 3 5 0.00 0.00
8:53 am 08:53 Cloudy with Mist and Fog 47 8.3 45 7.2 93 93 Calm 29.86 1011 4 6 0.00 0.00
9:53 am 09:53 Cloudy with Mist and Fog 49 9.4 46 7.8 90 90 ENE 3 6 29.86 1011 6 10 0.00 0.00
10:53 am 10:53 Cloudy 52 11.1 48 8.9 86 86 ENE 3 6 29.89 1012 10 16 0.00 0.00
11:35 am 11:35 Cloudy 53 11.7 47 8.3 80 80 NNE 3 6 29.88 1012 10 16 0.00 0.00
11:49 am 11:49 Cloudy 54 12 46 8 77 77 VRB 5 7 29.85 1011 10 16 0.00 0.00
11:53 am 11:53 Cloudy 53 11.7 46 7.8 77 77 ENE 5 7 29.88 1012 10 16 0.00 0.00
12:53 pm 12:53 Cloudy 51 10.6 44 6.7 77 77 NNE 12 19 29.86 1011 10 16 0.00 0.00
1:37 pm 13:37 Cloudy 49 9.4 43 6.1 80 80 N 14 22 29.85 1011 10 16 0.00 0.00
1:53 pm 13:53 Cloudy 48 8.9 42 5.6 80 80 N 14 22 29.88 1012 10 16 0.00 0.00
2:53 pm 14:53 Cloudy 45 7.2 38 3.3 77 77 NNE 14 22 29.89 1012 10 16 0.00 0.00
3:53 pm 15:53 Cloudy 45 7.2 37 2.8 74 74 NNE 14 22 29.92 1013 10 16 0.00 0.00
4:08 pm 16:08 Cloudy 45 7 37 3 76 76 NNE 14 22 29.94 1014 10 16 0.00 0.00
4:53 pm 16:53 Cloudy 44 6.7 35 1.7 71 71 NNE 13 20 29.95 1014 10 16 0.00 0.00
5:53 pm 17:53 Cloudy 43 6.1 34 1.1 71 71 NNE 20 31 29.99 1016 10 16 0.00 0.00
6:53 pm 18:53 Cloudy 42 5.6 33 0.6 71 71 NNE 18 30 30.02 1017 10 16 0.00 0.00
7:53 pm 19:53 Cloudy 38 3.3 31 -0.6 76 76 NNE 20 31 30.04 1017 10 16 0.00 0.00
8:33 pm 20:33 Cloudy 37 2.8 31 -0.6 79 79 NNE 18 30 30.09 1019 10 16 0.00 0.00
8:53 pm 20:53 Cloudy 37 2.8 31 -0.6 79 79 NNE 20 31 30.05 1018 9 14 0.00 0.00
9:53 pm 21:53 Cloudy 36 2.2 30 -1.1 79 79 NNE 22 35 30.07 1018 8 13 0.00 0.00
10:20 pm 22:20 Cloudy 36 2 30 -1 81 81 NNE 18 30 30.15 1021 7 11 0.00 0.00
10:53 pm 22:53 Cloudy 35 1.7 31 -0.6 85 85 NNE 14 22 30.09 1019 8 13 0.00 0.00
11:53 pm 23:53 Cloudy with Mist and Fog 35 1.7 31 -0.6 85 85 NNE 22 35 30.09 1019 5 8 0.00 0.00

Powered by AerisWeather